RH
75 79 83 83 83 84 85 86 86 86 87 86 84 82 80 79 81 78 76 78 77 78 78 79 80 81 82 82 82 85 85 83 82 81 80 75 72 74 76 78 81 83 81 81 78 74 72 67 65 63 61 62 59 57 54 50 47 43 41 40 38 36 34 33 32 31 31 31 32 32 32 32 33 35 37 40 42 43 43 44 45 44 44 44 44 44 44 44 44 43 45 48 49 50 52 54 56
74 79 83 84 85 86 86 86 85 85 85 83 81 80 78 78 79 76 75 76 76 77 77 79 81 81 81 81 81 82 83 83 79 76 75 72 71 73 75 75 77 80 78 76 73 70 71 67 62 61 60 58 55 53 49 46 43 41 40 40 38 35 33 32 32 32 32 33 33 34 34 34 35 37 40 43 45 46 46 47 46 46 46 46 46 46 46 46 44 43 43 45 47 48 49 53 55
75 79 81 83 85 85 85 84 84 84 83 80 78 77 77 78 77 75 72 72 73 75 76 79 81 82 81 81 81 81 82 81 78 73 72 70 68 71 74 72 72 73 71 70 67 65 68 67 61 58 56 54 52 49 46 44 42 40 41 40 36 33 33 33 34 33 33 34 35 36 36 36 37 40 44 47 48 48 49 49 48 48 48 48 49 50 50 50 48 46 44 44 45 46 48 51 55
73 76 78 80 83 84 84 82 81 80 79 78 76 74 75 76 74 73 70 70 70 71 74 76 79 80 80 81 81 81 82 81 78 71 69 68 65 67 70 69 68 67 65 64 63 62 64 64 60 55 53 53 51 47 44 44 41 41 41 38 34 32 34 35 35 35 36 36 37 38 38 38 40 44 47 49 49 49 50 50 51 51 51 50 50 52 53 53 52 50 48 47 46 47 49 51 54
70 74 77 80 81 81 81 80 80 76 74 75 72 68 70 70 70 70 68 69 67 67 69 71 76 78 78 80 80 79 80 79 76 69 64 65 62 63 65 64 64 63 61 60 60 59 59 60 59 55 52 51 49 46 45 44 41 40 39 36 34 34 36 36 37 37 37 38 39 39 39 41 43 46 49 50 49 49 52 54 57 58 58 57 54 54 55 55 54 54 52 51 49 49 51 52 53
68 73 77 79 78 77 78 79 79 76 70 70 68 63 62 65 66 66 65 66 65 64 66 67 70 73 76 79 79 78 78 73 69 66 62 61 60 61 61 60 60 59 58 56 56 56 55 55 55 52 48 47 47 45 45 43 39 38 37 36 35 36 37 37 38 38 39 39 40 41 42 43 45 47 49 49 49 53 58 59 60 60 62 62 59 57 57 57 55 55 55 54 53 51 52 53 54
68 72 75 76 75 75 77 76 76 74 67 64 64 60 58 61 62 61 60 62 64 62 63 66 66 68 73 75 76 75 72 67 62 62 60 58 57 57 58 58 58 57 56 55 53 53 53 52 50 47 44 44 45 44 44 40 37 37 37 36 36 37 37 38 38 39 39 39 41 42 43 44 46 48 49 51 53 56 58 57 56 58 60 60 60 60 59 57 56 56 57 57 57 55 54 53 53
68 71 73 74 72 73 75 74 73 70 63 59 59 57 57 59 59 59 58 60 62 60 59 62 63 65 68 69 72 71 66 61 57 58 58 56 54 54 56 55 56 56 56 55 53 53 53 52 48 45 42 42 43 42 41 38 36 36 37 36 37 38 38 38 39 40 40 40 41 42 44 47 49 50 52 54 53 52 51 51 54 57 57 56 58 60 59 57 56 57 58 58 59 58 57 55 53
69 69 71 73 71 71 69 68 67 62 60 59 56 54 55 57 57 58 58 59 59 58 58 58 58 60 64 65 70 68 61 58 55 56 56 54 53 53 54 53 53 53 54 55 54 54 54 53 50 45 42 41 41 39 37 37 37 37 37 38 39 39 39 39 40 41 41 41 42 44 48 51 53 53 53 51 47 46 47 50 55 57 55 54 54 57 59 58 58 59 60 60 60 61 61 59 56
69 69 69 71 70 68 65 62 58 54 56 57 56 54 54 55 57 57 56 58 56 56 57 57 59 60 61 65 67 65 59 56 54 54 54 53 54 54 54 53 52 52 52 53 52 52 53 53 50 45 42 39 37 36 35 35 36 37 38 39 39 38 39 40 41 42 43 43 44 47 51 54 54 52 48 46 45 46 47 49 52 55 54 52 52 53 55 57 59 60 61 60 59 60 61 62 60
68 68 67 70 71 69 66 62 55 50 50 51 54 56 55 55 58 58 56 57 54 56 56 56 62 61 60 62 64 62 57 55 53 52 52 51 53 53 54 52 51 51 50 51 49 48 50 51 49 45 41 38 35 34 34 34 35 36 37 38 38 38 39 41 42 44 44 45 45 47 52 54 52 47 44 45 46 47 47 47 47 48 49 49 48 48 49 51 54 55 56 55 55 55 57 59 59
69 70 69 70 70 68 64 58 52 49 47 46 50 54 56 56 58 58 57 57 54 59 58 56 61 60 60 61 61 60 56 55 52 52 52 50 50 50 50 49 48 48 48 48 47 46 47 48 47 44 40 37 36 36 36 37 37 37 38 38 38 40 41 42 44 46 45 45 46 49 53 53 47 43 43 43 45 46 47 47 45 45 45 45 45 45 46 47 49 50 50 50 50 50 51 54 55
70 70 69 68 66 65 59 53 49 49 46 43 46 52 56 56 56 58 58 58 57 61 60 56 59 58 61 60 58 58 55 54 52 52 52 50 50 48 47 46 45 45 45 45 45 45 45 45 44 41 37 35 36 38 40 40 41 40 41 40 41 42 42 44 45 45 45 46 48 50 51 47 42 40 40 40 42 43 43 44 44 44 44 45 46 46 47 48 50 50 50 50 49 49 49 50 50
69 69 69 66 63 61 55 52 49 49 46 42 45 49 52 52 53 57 58 60 60 60 59 57 55 57 63 60 57 56 53 52 52 52 52 50 49 48 47 45 45 43 42 42 43 44 42 41 40 39 36 37 39 41 42 42 42 42 43 43 43 43 43 44 44 45 46 47 49 48 46 41 38 37 38 39 41 41 40 40 39 39 40 42 44 46 48 51 52 53 54 54 53 53 53 53 53
69 69 68 64 62 59 55 54 52 49 46 44 46 45 48 49 50 55 56 60 61 58 57 57 53 55 62 59 56 54 50 49 50 52 52 51 49 48 47 46 45 44 42 42 42 42 40 38 38 39 39 40 41 42 42 41 42 41 41 42 43 44 44 44 44 44 46 47 47 45 42 39 36 37 38 40 41 40 39 38 37 35 35 37 39 42 45 49 51 52 54 55 55 55 56 59 61
70 71 69 62 60 59 57 55 52 49 44 45 47 43 46 48 46 49 54 57 59 58 57 57 54 54 58 59 55 51 48 47 48 50 51 52 50 48 48 47 45 44 43 42 42 41 39 39 40 41 42 42 42 42 42 41 41 41 41 42 43 44 44 43 43 44 46 47 45 42 40 38 37 39 40 40 40 39 38 37 36 34 34 35 36 39 42 44 46 46 48 49 50 49 50 55 60
72 72 69 62 60 59 57 53 51 48 43 45 47 43 44 44 42 43 47 51 55 56 54 52 55 55 56 57 54 52 50 48 48 48 49 52 49 47 47 46 45 43 43 42 41 41 41 42 42 42 43 42 42 42 41 40 42 42 42 43 44 43 43 42 43 45 46 45 43 41 39 37 37 39 40 40 39 37 38 37 35 35 37 38 38 40 43 44 44 43 44 45 46 44 44 46 50
70 71 67 63 61 58 55 52 51 48 47 46 45 44 43 41 40 41 42 45 47 49 49 50 53 54 55 54 53 53 53 51 49 48 50 53 50 47 46 43 44 43 42 43 41 42 44 43 42 41 41 40 40 41 40 41 42 43 43 43 42 42 41 42 43 45 47 44 42 40 37 36 37 39 40 39 38 36 37 38 37 38 41 42 42 43 45 45 44 43 43 44 47 46 43 42 44
67 66 64 61 59 56 53 52 51 48 50 51 47 46 44 41 41 41 41 41 42 43 45 48 51 52 53 53 51 51 54 53 49 48 50 52 49 48 46 43 42 41 41 41 40 42 43 41 40 39 39 38 38 39 39 40 41 41 41 41 40 40 40 41 42 45 46 44 40 37 35 36 37 40 41 39 38 37 37 37 38 40 42 44 45 46 46 46 46 45 44 43 45 46 44 44 42
64 63 62 60 56 54 53 51 50 48 50 53 51 49 46 45 43 42 41 40 41 39 39 44 49 50 49 51 50 49 53 53 49 49 51 50 47 46 46 43 41 39 40 39 39 42 40 38 38 37 36 35 36 37 37 38 39 38 38 39 39 39 39 39 41 43 44 42 38 36 36 37 39 42 43 42 41 40 39 38 39 40 42 45 47 48 46 46 48 47 45 43 42 42 42 44 40
60 61 62 59 55 54 52 51 52 51 50 51 51 51 50 48 46 45 42 41 43 39 35 37 43 45 45 47 49 50 52 51 49 48 49 49 47 45 44 42 39 38 39 38 38 39 35 34 35 34 34 33 34 35 35 36 36 36 36 37 38 38 38 39 40 41 41 40 38 37 39 41 43 46 46 45 44 43 43 41 41 42 44 46 48 48 47 47 48 47 46 45 42 41 41 41 38
57 57 59 58 56 54 52 51 53 52 52 52 51 52 52 49 47 47 43 42 43 39 36 35 38 42 42 43 47 50 50 48 48 47 47 48 46 44 42 39 36 37 38 37 38 36 32 33 33 33 33 33 33 34 34 34 35 35 36 37 38 37 38 37 37 38 39 39 38 40 43 44 45 46 47 47 47 47 48 47 46 47 48 49 49 48 48 47 48 47 46 45 43 42 41 40 38
56 55 55 55 55 53 52 53 53 53 54 54 53 52 52 48 46 47 44 39 37 36 39 39 39 40 41 44 47 49 49 48 47 45 44 44 43 42 41 37 34 35 36 36 36 34 32 33 33 34 34 33 34 34 34 35 35 36 36 37 36 36 36 36 35 36 38 38 38 42 45 46 46 46 48 49 49 49 48 49 50 50 51 52 49 48 48 48 48 47 45 44 43 43 43 40 39
56 56 53 52 52 50 51 52 51 52 53 53 53 53 51 48 45 46 44 39 35 35 39 40 40 42 42 45 49 48 48 47 45 43 41 39 39 38 39 37 34 34 34 35 35 32 33 34 35 36 35 35 35 34 35 35 35 36 36 36 35 35 35 34 35 36 37 37 39 42 45 47 47 47 49 49 48 49 48 49 51 52 51 50 49 47 48 48 47 48 45 44 43 43 43 41 40
54 55 53 52 50 49 48 49 50 51 51 51 53 54 52 48 44 44 42 40 38 37 39 41 42 44 44 45 49 49 48 47 44 43 41 40 39 39 37 35 33 33 34 34 33 32 34 34 36 36 35 35 35 34 33 33 33 34 35 34 34 34 34 34 35 37 37 37 39 42 44 46 47 47 48 48 48 49 49 49 51 51 50 49 48 46 47 47 47 48 46 45 43 43 43 41 40
53 53 54 52 49 47 45 45 48 49 49 50 51 54 53 49 44 42 39 39 40 39 38 41 43 46 46 45 47 47 47 46 43 41 40 40 41 40 38 33 32 33 33 33 32 32 34 35 36 36 34 34 34 33 32 32 33 33 34 34 34 35 35 35 36 37 37 37 38 42 44 45 47 47 48 49 48 48 47 48 49 50 49 48 47 46 46 46 46 46 46 45 43 44 44 42 40
52 51 52 51 48 46 43 42 44 46 46 48 50 52 51 47 44 41 39 39 41 42 40 40 43 47 48 46 45 46 46 45 42 40 40 40 40 39 36 33 32 33 34 33 31 32 34 35 36 34 33 33 32 32 32 31 32 35 36 35 36 37 38 38 39 39 39 39 39 41 43 44 46 47 47 48 47 46 47 47 48 48 47 48 47 46 46 46 45 45 44 44 43 44 42 41 40
50 48 47 45 44 43 41 39 39 42 43 46 50 51 48 45 42 40 41 42 43 45 42 39 41 46 48 45 43 44 45 44 43 40 38 38 37 36 34 30 31 32 34 33 31 32 34 35 35 34 32 31 31 32 33 33 32 35 38 37 37 38 39 40 41 41 41 41 40 39 40 42 44 45 45 45 45 44 45 45 45 44 45 45 44 45 47 46 45 45 44 43 43 43 40 40 40
43 43 42 41 39 37 36 35 35 37 40 45 49 49 47 44 41 40 42 44 45 48 45 39 40 45 48 46 43 42 43 42 43 40 37 36 34 34 32 29 30 31 33 33 31 32 34 34 35 34 30 29 30 32 34 34 32 33 36 37 37 37 39 40 40 41 41 40 40 39 39 40 42 42 42 42 42 42 42 42 41 41 41 40 41 43 46 46 46 46 45 43 42 41 38 41 40
37 38 38 37 35 31 31 32 33 34 37 42 45 47 46 44 43 42 44 45 48 50 48 41 38 42 46 45 43 41 40 38 39 38 35 34 33 33 32 30 31 31 32 33 31 32 33 33 34 33 29 28 29 31 33 34 32 32 34 35 35 35 36 37 37 38 39 39 40 40 38 38 39 39 39 39 39 39 39 40 38 38 38 36 38 41 43 45 46 45 44 42 41 40 38 41 41
36 35 32 32 32 29 28 31 34 35 35 38 42 44 43 44 45 46 47 47 48 51 52 46 39 39 44 45 42 39 37 34 36 38 35 33 33 33 32 31 32 32 32 32 31 32 33 34 33 32 29 28 29 30 31 33 32 31 32 33 33 34 34 34 35 35 36 39 41 41 38 37 36 35 37 37 39 39 39 38 36 36 36 34 35 38 41 42 43 43 42 40 41 40 38 39 38
34 32 31 31 30 28 29 31 33 34 34 36 40 42 42 45 47 48 50 49 48 49 52 51 45 40 43 46 44 40 36 31 32 37 36 33 32 32 31 31 31 31 31 31 31 32 33 33 33 32 29 29 29 29 31 32 32 30 31 32 32 34 34 34 35 35 36 37 39 40 39 38 38 37 38 38 40 41 40 38 37 38 37 36 36 37 38 39 41 42 42 41 41 39 36 35 32
32 30 30 31 29 28 29 30 32 31 32 34 37 39 42 46 48 49 50 49 48 47 49 52 51 44 41 45 45 41 37 31 30 34 36 34 32 31 31 30 31 31 31 31 31 31 32 32 33 32 29 29 30 30 30 31 31 30 29 31 32 34 35 34 36 37 37 36 37 38 38 39 41 42 42 41 41 40 40 39 39 40 38 37 37 37 36 37 38 40 41 40 37 34 31 28 26
30 28 28 30 28 27 28 30 31 29 30 33 36 38 41 45 47 47 49 50 49 48 48 49 50 46 41 44 46 42 38 32 28 30 33 34 32 30 30 31 31 31 31 31 30 31 31 32 33 32 30 30 30 30 30 30 31 31 29 30 32 33 34 35 35 36 36 36 36 37 39 41 43 44 44 43 42 42 41 40 39 39 38 38 37 36 34 35 36 38 37 34 31 28 27 26 24
29 27 28 30 29 28 28 30 30 30 31 33 36 37 40 44 46 46 48 49 49 49 49 49 49 48 43 42 46 44 38 32 27 27 30 32 31 30 31 32 32 32 32 31 31 31 32 32 33 32 31 31 31 31 31 30 30 31 30 30 31 33 33 33 34 34 35 36 35 36 40 43 44 45 45 45 44 42 40 38 38 38 39 39 37 33 31 31 32 32 30 28 28 27 27 26 24
26 26 28 29 29 27 28 30 30 32 33 34 35 35 39 44 46 45 46 47 47 49 50 49 49 49 46 43 45 45 40 32 27 26 28 30 30 30 31 32 32 31 31 31 31 31 30 32 32 32 31 31 31 30 29 29 29 30 30 29 30 30 30 31 32 33 34 35 34 35 38 42 43 44 45 45 43 42 40 38 38 39 39 38 35 29 26 26 27 27 26 27 28 28 28 27 24
24 24 26 28 28 26 27 30 31 32 32 33 34 35 38 42 44 44 44 45 47 48 48 49 49 49 48 45 44 46 42 32 26 26 27 28 29 30 30 31 31 31 31 31 30 29 29 29 29 29 29 29 27 27 27 27 27 27 27 27 27 27 28 30 31 32 33 34 35 34 36 40 42 43 44 44 44 43 41 40 40 40 37 33 29 25 24 25 26 26 27 28 29 29 29 27 25
22 23 24 27 26 25 27 30 32 31 30 32 35 37 40 41 43 43 44 45 45 46 46 47 49 49 49 47 44 46 45 35 28 27 27 27 28 29 29 30 29 29 29 28 27 27 28 28 27 27 28 26 23 24 25 25 25 25 25 26 26 26 27 28 29 30 31 33 35 35 36 39 41 42 42 43 44 45 44 42 39 35 31 28 26 26 26 26 27 28 29 30 30 30 28 26 24
19 21 23 25 24 25 28 29 30 30 29 31 35 38 41 43 44 44 43 43 43 45 45 45 48 48 47 47 44 44 46 40 31 28 26 26 25 26 27 27 26 26 26 26 26 26 27 27 26 26 25 24 22 23 23 23 24 24 24 25 26 25 25 26 27 30 31 32 34 35 36 38 40 41 42 43 44 44 44 41 34 30 28 28 28 29 29 30 31 32 33 32 30 27 25 26 28
17 18 20 22 22 25 30 29 30 30 28 31 34 36 39 43 48 47 44 43 44 45 46 45 47 47 45 46 44 42 44 41 34 28 26 25 24 23 24 24 24 25 25 26 25 25 25 25 25 25 24 23 22 22 23 23 24 24 25 26 26 26 25 25 27 28 30 31 33 33 33 35 38 39 41 42 43 44 42 36 31 28 28 29 30 33 33 33 34 34 33 31 28 25 27 31 33
16 16 17 18 20 25 30 31 30 30 28 29 32 34 36 40 46 47 45 45 45 45 46 45 46 47 46 47 47 45 42 40 36 31 26 24 23 22 21 22 22 23 24 24 23 23 23 24 24 24 24 24 23 22 23 24 25 25 26 27 29 29 26 25 25 26 28 30 31 31 31 33 35 38 40 42 43 43 38 32 30 30 30 31 33 36 36 35 36 35 32 31 28 28 31 35 36
16 15 14 16 20 26 30 31 30 30 30 29 31 35 38 37 39 44 45 45 45 44 44 44 45 46 46 47 49 48 44 40 36 32 27 23 22 22 21 21 21 22 22 22 21 21 21 22 23 24 24 24 24 23 23 24 24 24 25 26 26 27 26 24 23 24 26 29 31 31 31 32 34 37 41 43 42 39 34 31 32 32 32 34 37 38 39 40 41 39 36 35 35 36 38 40 41
15 13 12 15 21 26 30 31 30 31 31 30 31 35 40 38 36 40 44 44 43 43 42 43 44 44 44 45 47 48 45 41 38 34 30 26 25 24 22 21 21 20 20 20 20 21 21 22 23 23 24 24 24 23 23 23 23 23 23 23 22 22 22 21 21 23 25 28 30 32 33 33 34 37 41 42 40 35 32 32 35 35 35 37 40 42 42 44 44 43 40 39 43 45 44 45 46
13 9 10 13 19 24 27 30 30 30 31 30 30 33 36 38 37 36 40 43 43 41 39 41 42 42 43 43 44 46 44 41 39 36 34 32 29 27 24 21 20 20 19 20 20 20 21 21 21 22 23 23 23 23 22 22 23 23 23 23 21 20 19 19 21 22 25 28 30 31 33 34 35 37 40 41 38 33 31 34 36 37 38 42 43 43 43 45 44 42 41 43 48 50 47 46 47
10 8 9 10 16 22 24 28 29 29 31 30 29 32 33 35 37 35 36 41 42 39 38 39 40 40 41 41 42 45 44 41 38 36 35 33 31 28 24 21 19 19 20 20 20 20 20 20 20 21 22 22 23 22 22 22 22 24 24 24 23 21 20 20 21 22 23 26 28 30 33 35 35 36 39 40 37 33 34 36 37 38 41 43 44 43 43 45 44 42 42 45 48 49 47 44 44
8 8 9 8 14 21 24 27 27 28 32 30 27 30 31 30 32 33 35 38 37 36 36 36 37 37 38 40 41 42 44 42 39 36 34 33 31 28 26 24 21 21 21 20 20 20 20 20 20 20 21 21 22 22 22 22 22 24 25 25 24 23 22 22 21 21 21 23 25 27 31 33 34 35 38 39 36 35 38 39 38 39 41 43 44 43 44 45 44 41 42 44 44 46 45 42 42
8 8 8 7 11 18 24 26 27 29 29 24 23 27 29 26 24 27 31 33 34 34 35 35 36 36 37 38 39 40 41 41 41 39 35 33 31 30 29 27 26 25 24 22 22 22 22 21 20 20 20 20 21 21 22 22 22 23 25 25 24 23 23 22 22 20 19 19 21 23 27 31 33 35 37 38 37 38 41 41 39 39 41 43 44 43 44 44 41 40 42 44 43 43 43 41 42
10 9 9 10 10 15 21 24 28 27 21 17 19 25 28 24 20 22 25 27 30 31 32 33 35 35 35 37 39 39 39 39 41 41 38 35 32 31 31 31 29 28 27 25 24 24 23 22 21 20 19 20 20 21 21 22 22 23 24 24 24 24 24 23 21 18 17 17 18 21 25 30 33 36 37 38 38 40 41 40 40 41 41 43 44 43 44 44 41 39 40 42 42 41 41 42 42
11 11 12 13 12 13 17 21 23 19 15 16 19 23 27 22 17 20 23 23 25 27 28 30 32 32 32 35 37 37 38 38 40 41 40 38 34 31 31 31 30 29 28 28 26 25 24 23 22 21 20 20 20 21 21 21 22 22 23 25 25 24 24 23 20 18 16 16 18 22 26 29 32 34 35 37 38 39 40 39 40 42 42 43 43 42 43 44 43 38 37 40 41 40 42 43 42
11 11 12 14 14 14 17 17 16 13 12 14 17 22 26 21 16 17 20 21 21 23 24 27 30 30 30 32 35 35 36 38 39 40 40 39 37 34 32 31 30 29 29 30 30 29 27 25 23 22 21 21 22 22 23 23 22 22 23 25 26 25 24 23 21 18 16 17 19 23 26 28 30 31 31 34 36 37 38 38 39 40 42 42 41 41 42 43 43 38 36 39 38 38 40 41 40
10 10 12 13 14 16 16 14 12 12 12 13 16 22 23 18 17 17 17 20 20 19 20 22 26 27 26 29 33 34 35 35 37 39 39 39 39 38 37 35 32 30 30 31 32 33 33 31 28 24 22 23 25 26 26 25 24 23 23 25 26 26 25 24 22 20 18 18 20 24 27 27 29 30 30 32 35 37 38 38 39 40 41 42 40 40 41 41 39 36 37 39 38 38 39 39 39
11 11 12 12 12 13 13 13 12 12 12 13 15 19 20 18 17 17 17 20 20 18 18 18 21 24 24 28 31 32 32 33 35 36 38 39 40 40 40 39 36 33 33 33 33 34 35 36 35 31 26 24 24 26 28 27 27 26 25 25 26 26 26 26 24 21 19 19 21 24 27 28 29 31 32 33 35 37 37 38 39 39 40 43 40 38 39 39 38 36 37 38 38 38 40 40 38
13 12 12 11 10 11 12 13 12 11 12 13 13 15 17 16 16 16 17 19 20 19 18 17 19 22 23 25 27 28 29 31 33 34 36 38 40 41 41 41 40 38 37 35 34 34 35 38 39 37 33 30 27 26 27 28 28 28 27 27 26 26 26 25 24 22 20 19 21 23 26 29 30 31 33 33 34 36 37 39 40 40 41 42 40 36 36 36 38 37 36 35 35 37 39 39 38
13 12 11 10 10 12 13 13 11 11 12 12 12 12 12 15 17 16 16 18 20 20 19 17 19 22 22 22 24 26 28 31 32 33 36 38 40 41 41 41 40 39 38 36 34 34 36 38 39 38 37 36 32 29 28 28 27 28 28 27 27 26 26 25 23 22 22 22 23 24 26 30 31 32 33 33 33 35 37 40 41 42 42 41 38 36 34 35 38 37 35 33 34 36 37 38 37
13 12 11 12 13 12 13 14 13 12 12 11 11 12 11 13 16 16 14 17 20 20 20 18 19 22 20 19 22 25 27 29 31 33 35 36 39 40 40 40 40 39 38 37 35 36 37 38 38 38 37 35 35 33 30 28 26 27 27 27 28 27 26 26 24 23 23 23 25 26 28 31 32 33 34 33 33 35 39 41 42 42 41 39 38 36 35 36 37 36 34 34 35 36 37 37 38
13 13 13 13 13 12 12 14 12 13 15 14 11 11 10 10 13 13 13 16 17 19 20 19 19 22 20 19 21 22 24 28 31 32 34 35 38 40 40 40 40 41 39 37 37 38 38 37 37 37 35 34 34 34 32 30 27 26 26 27 28 28 27 27 26 24 23 23 25 28 30 32 33 34 35 34 33 36 40 42 42 41 40 39 39 38 37 37 36 35 35 35 36 37 37 37 38
13 14 14 13 13 12 12 12 12 13 19 20 15 10 9 10 12 10 11 14 15 16 18 19 19 21 20 19 19 20 23 27 30 32 34 35 37 39 40 40 40 42 40 39 39 39 38 38 37 36 34 33 33 32 31 30 29 28 27 27 28 29 29 28 27 26 24 23 25 28 32 32 32 34 35 34 34 37 41 42 42 40 38 38 39 40 39 36 34 34 35 35 36 38 38 37 38
13 13 13 12 13 13 12 13 13 11 15 19 16 10 8 9 11 9 9 12 13 14 16 16 18 20 20 20 19 20 23 26 28 32 33 35 38 40 40 40 41 42 41 40 40 40 39 38 36 34 33 33 32 30 29 29 30 29 28 28 28 28 28 28 28 27 25 24 25 28 31 30 30 33 35 35 35 37 40 42 42 40 37 37 40 42 40 37 35 36 35 35 37 39 39 39 39